This is the latest recevied weather packets stored in our database for station/object CA3PBK-13. If no packets are shown the sender has not sent any weather packets the latest 10 day(s).
| Time | Temp. | Humidity | Pressure | Rain* | Wind** | Luminosity | Snow |
|---|---|---|---|---|---|---|---|
| 1778337186 | 17.78° C | 99% | 929.5 hPa | 0 mm | - | - | - |
| 1778337066 | 17.22° C | 99% | 929.4 hPa | 0 mm | - | - | - |
| 1778336946 | 17.22° C | 99% | 929.4 hPa | 0 mm | - | - | - |
| 1778336826 | 17.22° C | 99% | 929.5 hPa | 0 mm | - | - | - |
| 1778336707 | 16.67° C | 99% | 929.5 hPa | 0 mm | - | - | - |
| 1778336586 | 16.67° C | 99% | 929.4 hPa | 0 mm | - | - | - |
| 1778336467 | 16.67° C | 99% | 929.4 hPa | 0 mm | - | - | - |
| 1778336346 | 16.67° C | 99% | 929.3 hPa | 0 mm | - | - | - |
| 1778336226 | 16.11° C | 99% | 929.3 hPa | 0 mm | - | - | - |
| 1778336108 | 16.67° C | 99% | 929.5 hPa | 0 mm | - | - | - |
| 1778335986 | 16.11° C | 99% | 929.4 hPa | 0 mm | - | - | - |
| 1778335866 | 15.56° C | 99% | 929.5 hPa | 0 mm | - | - | - |
| 1778335746 | 15.56° C | 99% | 929.4 hPa | 0 mm | - | - | - |
| 1778335626 | 15.56° C | 1% | 929.4 hPa | 0 mm | - | - | - |
| 1778335508 | 15° C | 1% | 929.4 hPa | 0 mm | - | - | - |
| 1778335386 | 15° C | 1% | 929.4 hPa | 0 mm | - | - | - |
| 1778335266 | 15° C | 1% | 929.3 hPa | 0 mm | - | - | - |
| 1778335147 | 15° C | 1% | 929.3 hPa | 0 mm | - | - | - |
| 1778335026 | 15° C | 1% | 929.3 hPa | 0 mm | - | - | - |
| 1778334908 | 14.44° C | 1% | 929.3 hPa | 0 mm | - | - | - |
| 1778334786 | 14.44° C | 1% | 929.3 hPa | 0 mm | - | - | - |
| 1778334666 | 14.44° C | 1% | 929.3 hPa | 0 mm | - | - | - |
| 1778334546 | 14.44° C | 1% | 929.2 hPa | 0 mm | - | - | - |
| 1778334426 | 13.89° C | 1% | 929.3 hPa | 0 mm | - | - | - |
| 1778334307 | 13.89° C | 1% | 929.3 hPa | 0 mm | - | - | - |
* Rain latest hour (hover to see other rain measurements)
** Current wind speed in m/s (hover to see current wind gust speed)